When you browse on this site, cookies collect data to enhance your experience and personalize the content and advertising you see.
Visit our Privacy Policy to learn more. By continuing to use the site, you agree to this use of cookies and data.
  • In Austria
  • List of Countries
  • For 7 days
  • Water Temperature
  • Satellite Maps
  • Weather Map
  • News
  • Weather Widgets
  • user-avatar
    Login

    Hourly Weather Sun City

    Today, 19 April, Friday

    Time Temperature Precipitation Wind Pressure Humidity
    00:00 +27°C° 0 mm 2 mps 732 mmHg 18%
    01:00 +27°C° 0 mm 2 mps 731 mmHg 18%
    02:00 +26°C° 0 mm 2 mps 731 mmHg 19%
    03:00 +25°C° 0 mm 2 mps 731 mmHg 18%
    04:00 +25°C° 0 mm 3 mps 731 mmHg 18%
    05:00 +24°C° 0 mm 3 mps 731 mmHg 17%
    06:00 +25°C° 0 mm 3 mps 731 mmHg 16%
    07:00 +26°C° 0 mm 3 mps 731 mmHg 14%
    08:00 +27°C° 0 mm 3 mps 731 mmHg 13%
    09:00 +29°C° 0 mm 3 mps 731 mmHg 11%
    10:00 +31°C° 0 mm 3 mps 730 mmHg 10%
    11:00 +34°C° 0 mm 3 mps 730 mmHg 9%
    12:00 +35°C° 0 mm 3 mps 730 mmHg 8%
    13:00 +36°C° 0 mm 3 mps 729 mmHg 7%
    14:00 +38°C° 0 mm 3 mps 728 mmHg 6%
    15:00 +38°C° 0 mm 2 mps 728 mmHg 6%
    16:00 +38°C° 0 mm 2 mps 727 mmHg 6%
    17:00 +38°C° 0 mm 2 mps 726 mmHg 5%
    18:00 +37°C° 0 mm 2 mps 726 mmHg 6%
    19:00 +35°C° 0 mm 2 mps 726 mmHg 7%
    20:00 +34°C° 0 mm 3 mps 726 mmHg 7%
    21:00 +32°C° 0 mm 2 mps 726 mmHg 8%
    22:00 +31°C° 0 mm 2 mps 726 mmHg 9%
    23:00 +30°C° 0 mm 1 mps 727 mmHg 9%

    Tomorrow, 20 April, Saturday

    Time Temperature Precipitation Wind Pressure Humidity
    00:00 +29°C° 0 mm 1 mps 726 mmHg 10%
    01:00 +28°C° 0 mm 2 mps 726 mmHg 11%
    02:00 +28°C° 0 mm 2 mps 726 mmHg 12%
    03:00 +27°C° 0 mm 2 mps 726 mmHg 14%
    04:00 +26°C° 0 mm 2 mps 725 mmHg 16%
    05:00 +25°C° 0 mm 1 mps 725 mmHg 17%
    06:00 +26°C° 0 mm 2 mps 726 mmHg 16%
    07:00 +27°C° 0 mm 2 mps 726 mmHg 16%
    08:00 +28°C° 0 mm 2 mps 726 mmHg 15%
    09:00 +29°C° 0 mm 2 mps 726 mmHg 14%
    10:00 +30°C° 0 mm 3 mps 727 mmHg 13%
    11:00 +33°C° 0 mm 4 mps 727 mmHg 12%
    12:00 +34°C° 0 mm 5 mps 726 mmHg 11%
    13:00 +34°C° 0 mm 5 mps 726 mmHg 11%
    14:00 +35°C° 0 mm 6 mps 726 mmHg 10%
    15:00 +35°C° 0 mm 6 mps 725 mmHg 10%
    16:00 +35°C° 0 mm 7 mps 725 mmHg 11%
    17:00 +35°C° 0 mm 7 mps 725 mmHg 11%
    18:00 +34°C° 0 mm 7 mps 725 mmHg 11%
    19:00 +33°C° 0 mm 6 mps 725 mmHg 10%
    20:00 +32°C° 0 mm 5 mps 726 mmHg 10%
    21:00 +30°C° 0 mm 6 mps 726 mmHg 12%
    22:00 +29°C° 0 mm 6 mps 726 mmHg 14%
    23:00 +28°C° 0 mm 6 mps 727 mmHg 16%

    Day after tomorrow, 21 April, Sunday

    Time Temperature Precipitation Wind Pressure Humidity
    00:00 +27°C° 0 mm 5 mps 726 mmHg 18%
    01:00 +26°C° 0 mm 4 mps 726 mmHg 19%
    02:00 +25°C° 0 mm 3 mps 726 mmHg 21%
    03:00 +24°C° 0 mm 3 mps 726 mmHg 23%
    04:00 +22°C° 0 mm 3 mps 726 mmHg 25%
    05:00 +22°C° 0 mm 3 mps 726 mmHg 27%
    06:00 +22°C° 0 mm 4 mps 727 mmHg 29%
    07:00 +22°C° 0 mm 4 mps 727 mmHg 30%
    08:00 +22°C° 0 mm 5 mps 727 mmHg 32%
    09:00 +23°C° 0 mm 5 mps 727 mmHg 29%
    10:00 +24°C° 0 mm 6 mps 728 mmHg 26%
    11:00 +26°C° 0 mm 7 mps 728 mmHg 23%
    12:00 +27°C° 0 mm 7 mps 727 mmHg 20%
    13:00 +28°C° 0 mm 7 mps 727 mmHg 18%
    14:00 +29°C° 0 mm 7 mps 726 mmHg 15%
    15:00 +28°C° 0 mm 7 mps 726 mmHg 14%
    16:00 +28°C° 0 mm 7 mps 726 mmHg 12%
    17:00 +28°C° 0 mm 7 mps 726 mmHg 10%
    18:00 +27°C° 0 mm 6 mps 726 mmHg 11%
    19:00 +26°C° 0 mm 5 mps 727 mmHg 12%
    20:00 +25°C° 0 mm 4 mps 727 mmHg 13%
    21:00 +25°C° 0 mm 3 mps 727 mmHg 14%
    22:00 +24°C° 0 mm 3 mps 728 mmHg 16%
    23:00 +24°C° 0 mm 3 mps 728 mmHg 17%

    22 April, Monday

    Time Temperature Precipitation Wind Pressure Humidity
    00:00 +23°C° 0 mm 2 mps 728 mmHg 18%
    01:00 +21°C° 0 mm 2 mps 728 mmHg 19%
    02:00 +22°C° 0 mm 1 mps 727 mmHg 20%
    03:00 +21°C° 0 mm 1 mps 728 mmHg 21%
    04:00 +20°C° 0 mm 2 mps 728 mmHg 21%
    05:00 +20°C° 0 mm 2 mps 728 mmHg 22%
    06:00 +20°C° 0 mm 2 mps 728 mmHg 22%
    07:00 +21°C° 0 mm 2 mps 729 mmHg 22%
    08:00 +23°C° 0 mm 2 mps 729 mmHg 23%
    09:00 +24°C° 0 mm 2 mps 729 mmHg 23%
    10:00 +25°C° 0 mm 2 mps 729 mmHg 22%
    11:00 +26°C° 0 mm 2 mps 729 mmHg 22%
    12:00 +27°C° 0 mm 3 mps 729 mmHg 21%
    13:00 +28°C° 0 mm 3 mps 728 mmHg 20%
    14:00 +29°C° 0 mm 3 mps 728 mmHg 19%
    15:00 +30°C° 0 mm 3 mps 728 mmHg 19%
    16:00 +30°C° 0 mm 3 mps 727 mmHg 18%
    17:00 +30°C° 0 mm 3 mps 727 mmHg 17%
    18:00 +30°C° 0 mm 2 mps 727 mmHg 18%
    19:00 +29°C° 0 mm 2 mps 728 mmHg 19%
    20:00 +28°C° 0 mm 1 mps 728 mmHg 19%
    21:00 +28°C° 0 mm 2 mps 728 mmHg 20%
    22:00 +27°C° 0 mm 2 mps 728 mmHg 21%
    23:00 +27°C° 0 mm 2 mps 728 mmHg 22%

    23 April, Tuesday

    Time Temperature Precipitation Wind Pressure Humidity
    00:00 +26°C° 0 mm 2 mps 728 mmHg 23%
    01:00 +25°C° 0 mm 1 mps 728 mmHg 24%
    02:00 +25°C° 0 mm 1 mps 728 mmHg 26%
    03:00 +24°C° 0 mm 1 mps 728 mmHg 27%
    04:00 +24°C° 0 mm 1 mps 728 mmHg 28%
    05:00 +23°C° 0 mm 1 mps 728 mmHg 30%
    06:00 +24°C° 0 mm 1 mps 729 mmHg 28%
    07:00 +25°C° 0 mm 2 mps 729 mmHg 27%
    08:00 +26°C° 0 mm 2 mps 730 mmHg 25%
    09:00 +27°C° 0 mm 2 mps 730 mmHg 23%
    10:00 +28°C° 0 mm 2 mps 730 mmHg 22%
    11:00 +30°C° 0 mm 2 mps 730 mmHg 20%
    12:00 +30°C° 0 mm 1 mps 729 mmHg 19%
    13:00 +31°C° 0 mm 1 mps 729 mmHg 17%
    14:00 +32°C° 0 mm 1 mps 728 mmHg 16%
    15:00 +32°C° 0 mm 1 mps 728 mmHg 16%
    16:00 +33°C° 0 mm 1 mps 728 mmHg 15%
    17:00 +33°C° 0 mm 1 mps 728 mmHg 15%
    18:00 +32°C° 0 mm 1 mps 728 mmHg 16%
    19:00 +32°C° 0 mm 2 mps 729 mmHg 16%
    20:00 +31°C° 0 mm 2 mps 729 mmHg 17%
    21:00 +30°C° 0 mm 2 mps 730 mmHg 18%
    22:00 +29°C° 0 mm 1 mps 730 mmHg 20%
    23:00 +29°C° 0 mm 1 mps 730 mmHg 21%

    24 April, Wednesday

    Time Temperature Precipitation Wind Pressure Humidity
    00:00 +28°C° 0 mm 1 mps 730 mmHg 21%
    01:00 +28°C° 0 mm 2 mps 730 mmHg 22%
    02:00 +27°C° 0 mm 2 mps 730 mmHg 22%
    03:00 +27°C° 0 mm 3 mps 730 mmHg 22%
    04:00 +26°C° 0 mm 3 mps 731 mmHg 21%
    05:00 +26°C° 0 mm 3 mps 731 mmHg 21%
    06:00 +27°C° 0 mm 3 mps 731 mmHg 20%
    07:00 +28°C° 0 mm 3 mps 731 mmHg 18%
    08:00 +28°C° 0 mm 3 mps 732 mmHg 17%
    09:00 +30°C° 0 mm 3 mps 732 mmHg 15%
    10:00 +31°C° 0 mm 3 mps 732 mmHg 14%
    11:00 +34°C° 0 mm 2 mps 732 mmHg 12%
    12:00 +35°C° 0 mm 2 mps 731 mmHg 11%
    13:00 +35°C° 0 mm 1 mps 731 mmHg 10%
    14:00 +35°C° 0 mm 1 mps 730 mmHg 10%
    15:00 +36°C° 0 mm 1 mps 730 mmHg 9%
    16:00 +36°C° 0 mm 1 mps 729 mmHg 9%
    17:00 +37°C° 0 mm 2 mps 729 mmHg 9%
    18:00 +36°C° 0 mm 2 mps 729 mmHg 9%
    19:00 +35°C° 0 mm 2 mps 729 mmHg 10%
    20:00 +34°C° 0 mm 2 mps 729 mmHg 11%
    21:00 +32°C° 0 mm 1 mps 729 mmHg 12%
    22:00 +31°C° 0 mm 1 mps 729 mmHg 13%
    23:00 +28°C° 0 mm 0 mps 729 mmHg 15%
    Show more